ELECTRON KICK STAGE R/B, 63207

Orbit data source: Space-Track

ELECTRON KICK STAGE R/B, 63207 is space debris in LEO originally from a launch on Sat, 15 Mar 2025 UTC launched from the Rocket Lab Launch Complex (RLLC). Debris objects in space refer to the collection of defunct objects orbiting the Earth. Examples of debris include non-operational satellites, rocket bodies, and fragments generated from explosions, collisions, or faulty payload assembly.

Loading next visibility...
Identifier
63207, 2025-050C
Orbit
LEO
Country
Flag of USUS
Related business
Manufacturer
Rocket Lab
Mission
Spacecraft
Bus & Motor
KICK STAGE, CURIE
Mass
~42 kg wet, ~42 kg dry
Launch date (UTC)
2025-03-15 (1 year ago)
Launch vehicle
Unknown
Launch site
Rocket Lab Launch Complex (RLLC)
Object type
Payload
Rocket body
Debris
Shape & HBR
Trunc Cone, 0.8 m
Radar Cross Section
0.760 m², Large (>1 m²)

Expand to show TLE details & history
Last TLE update: 6 hours ago

TLE from 6 hours ago
0 ELECTRON KICK STAGE R/B
1 63207U 25050C   26126.62006207  .00004608  00000-0  34935-3 0  9995
2 63207  42.0191 329.6887 0004605 214.2196 145.8335 15.03108251 62733
Epoch: 2026-05-06T14:52Z
TLE epoch observation values (Epoch: 2026-05-06T14:52:53.362Z)
Latitude
-0.00001°
Longitude
-118.01159°
Altitude
559.631 km
Speed
7.582 km/s
True Right ascension
21h 58m 45s
True Declination
0° 00' 00"
Sunlit
Object was in daylight at epoch
Visualization orbit readout
Latitude
Unknown
Longitude
Unknown
Altitude
Unknown
Speed
Unknown
Apparent Right ascension
Unknown
Apparent Declination
Unknown
Sunlit
N/A
Visualization observer readout
Local Sidereal Time
04:23:28
Azimuth
Unknown
Elevation
Unknown
Doppler factor
Unknown
Orbital elements
Apogee altitude
562.6 km
Perigee altitude
556.211 km
Semi-major axis
6,937.543 km
Eccentricity
0.00046
Inclination
42.0191°
RAAN
329.6887°
Arg. of periapsis
214.2196°
True anomaly
145.86312°
Mean anomaly
145.8335°
Eccentric anomaly
145.84831°
Mean motion
3.75608 °/min
Orbital period
95.84 mins
BSTAR
0.00034935
Loading maneuver chart data...
Computing Atmospheric mass density...
Loading historical data...
Loading historical data...
Loading historical data...
Loading historical data...
Loading historical data...
Loading historical data...
Loading historical data...
Other satellites on launch #50 in the year 2025 (2025-03-15 UTC)

Documentation

Showing up to 5 results
|